Middleton, WI

2:08 AM CST on December 03, 2016 (GMT -0600)
Middleton

Weather History for KC29 - October, 2012

Change the Weather History Date:

Wednesday, October 31, 2012

  Actual Average (KMSN) Record (KMSN)
Temperature  
Mean Temperature 40 °F 43 °F  
Max Temperature 49 °F 52 °F 77 °F (1950)
Min Temperature 30 °F 34 °F 16 °F (1925)
Degree Days  
Heating Degree Days 26 22  
Month to date heating degree days 506  
Since 1 July heating degree days 713  
Cooling Degree Days 0 0  
Month to date cooling degree days 4  
Year to date cooling degree days 568  
Moisture  
Dew Point 21 °F    
Average Humidity 54    
Maximum Humidity 75    
Minimum Humidity 23    
Precipitation  
Precipitation 0.00 in 0.08 in 1.21 in (1960)
Month to date precipitation 2.40  
Year to date precipitation 30.35  
Snow  
Snow 0.00 in 0.00 in 3.20 in (1926)
Month to date snowfall 0.5  
Since 1 July snowfall 0.5  
Since 1 September snowfall 0.5  
Snow Depth -    
Sea Level Pressure  
Sea Level Pressure 29.87 in    
Wind  
Wind Speed 10 mph (NW)    
Max Wind Speed 16 mph    
Max Gust Speed 22 mph    
Visibility 10 miles    
Events      
T = Trace of Precipitation, MM = Missing Value Source: NWS Daily Summary

Daily Weather History Graph

Daily Weather History Graph

Search for Another Location

Airport or City:

Trip Planner

Search our weather history database for the weather conditions in past years. The results will help you decide how hot, cold, wet, or windy it might be!

Date:

Astronomy

Oct. 31, 2012 Rise Set
Actual Time 7:32 AM CDT 5:50 PM CDT
Civil Twilight 7:02 AM CDT 6:20 PM CDT
Nautical Twilight 6:29 AM CDT 6:53 PM CDT
Astronomical Twilight 5:56 AM CDT 7:26 PM CDT
Moon 6:58 PM CDT (10/31) 9:16 AM CDT (10/31)
Length of Visible Light 11h 17m
Length of Day
10h 18m
Full, 97% of the Moon is Illuminated
Oct 31
Full
Nov 6
Last Quarter
Nov 13
New
Nov 20
First Quarter
Nov 28
Full

Hourly Weather History & Observations

Time (CDT) Temp. Windchill Dew Point Humidity Pressure Visibility Wind Dir Wind Speed Gust Speed Precip Events Conditions
12:15 AM 34.7 °F 26.9 °F 22.6 °F 61% 29.89 in 10.0 mi NNW 10.4 mph - N/A   Clear
12:35 AM 34.2 °F 26.2 °F 22.8 °F 63% 29.89 in 10.0 mi NNW 10.4 mph - N/A   Clear
12:55 AM 33.8 °F 25.3 °F 23.0 °F 65% 29.88 in 10.0 mi NNW 11.5 mph - N/A   Clear
1:15 AM 33.6 °F 25.6 °F 23.0 °F 65% 29.89 in 10.0 mi NNW 10.4 mph - N/A   Clear
1:35 AM 32.9 °F 24.7 °F 23.5 °F 68% 29.88 in 10.0 mi NW 10.4 mph - N/A   Clear
1:55 AM 32.9 °F 24.1 °F 23.4 °F 68% 29.88 in 10.0 mi NW 11.5 mph - N/A   Clear
2:15 AM 32.4 °F 24.0 °F 23.4 °F 69% 29.89 in 10.0 mi NW 10.4 mph - N/A   Clear
2:55 AM 32.0 °F 24.2 °F 23.0 °F 69% 29.89 in 10.0 mi NW 9.2 mph - N/A   Clear
3:15 AM 32.0 °F 24.8 °F 23.0 °F 69% 29.89 in 10.0 mi NW 8.1 mph - N/A   Clear
3:35 AM 31.8 °F 24.6 °F 23.0 °F 70% 29.89 in 10.0 mi NW 8.1 mph - N/A   Clear
3:55 AM 31.8 °F 24.6 °F 23.0 °F 70% 29.88 in 10.0 mi NW 8.1 mph - N/A   Clear
4:15 AM 31.6 °F 23.1 °F 23.0 °F 70% 29.88 in 10.0 mi NW 10.4 mph - N/A   Clear
4:35 AM 31.5 °F 22.9 °F 23.0 °F 71% 29.88 in 10.0 mi NW 10.4 mph - N/A   Clear
4:55 AM 31.5 °F 22.9 °F 23.0 °F 71% 29.88 in 10.0 mi NNW 10.4 mph - N/A   Clear
5:15 AM 31.3 °F 22.1 °F 23.0 °F 71% 29.88 in 10.0 mi NNW 11.5 mph - N/A   Clear
5:35 AM 31.1 °F 21.9 °F 23.0 °F 72% 29.88 in 10.0 mi NNW 11.5 mph - N/A   Clear
5:55 AM 31.1 °F 22.4 °F 23.0 °F 72% 29.89 in 10.0 mi NW 10.4 mph - N/A   Clear
6:15 AM 31.1 °F 21.9 °F 23.2 °F 72% 29.88 in 10.0 mi NW 11.5 mph 16.1 mph N/A   Clear
6:35 AM 31.1 °F 21.9 °F 23.5 °F 74% 29.88 in 10.0 mi NW 11.5 mph 16.1 mph N/A   Clear
6:55 AM 31.1 °F 21.4 °F 23.4 °F 73% 29.88 in 10.0 mi NW 12.7 mph 17.3 mph N/A   Clear
7:15 AM 30.9 °F 21.7 °F 23.5 °F 74% 29.88 in 10.0 mi NW 11.5 mph - N/A   Clear
7:35 AM 30.7 °F 22.0 °F 23.5 °F 75% 29.89 in 10.0 mi NW 10.4 mph - N/A   Clear
8:15 AM 31.1 °F 23.1 °F 23.9 °F 75% 29.89 in 10.0 mi NNW 9.2 mph - N/A   Clear
8:35 AM 32.2 °F 23.8 °F 24.6 °F 74% 29.88 in 10.0 mi NNW 10.4 mph - N/A   Clear
8:55 AM 32.9 °F 23.7 °F 24.6 °F 72% 29.89 in 10.0 mi NW 12.7 mph - N/A   Clear
9:15 AM 33.1 °F 25.5 °F 24.6 °F 71% 29.89 in 10.0 mi NW 9.2 mph - N/A   Clear
9:35 AM 34.2 °F 24.0 °F 25.0 °F 69% 29.89 in 10.0 mi NW 16.1 mph - N/A   Clear
9:55 AM 35.4 °F 26.8 °F 25.5 °F 67% 29.89 in 10.0 mi NW 12.7 mph 17.3 mph N/A   Clear
10:15 AM 36.7 °F 28.9 °F 25.7 °F 64% 29.89 in 10.0 mi NW 11.5 mph 16.1 mph N/A   Clear
10:35 AM 37.4 °F 28.9 °F 25.9 °F 63% 29.89 in 10.0 mi NW 13.8 mph 21.9 mph N/A   Clear
10:55 AM 39.2 °F 32.0 °F 26.1 °F 59% 29.88 in 10.0 mi NW 11.5 mph - N/A   Clear
11:15 AM 40.6 °F 33.4 °F 26.6 °F 57% 29.88 in 10.0 mi NW 12.7 mph 17.3 mph N/A   Clear
11:35 AM 41.5 °F 35.4 °F 26.8 °F 56% 29.88 in 10.0 mi NW 10.4 mph - N/A   Clear
11:55 AM 42.8 °F 35.8 °F 27.3 °F 54% 29.88 in 10.0 mi WNW 13.8 mph 19.6 mph N/A   Clear
12:15 PM 43.5 °F 37.9 °F 27.5 °F 53% 29.88 in 10.0 mi NW 10.4 mph 18.4 mph N/A   Clear
12:35 PM 44.8 °F 39.0 °F 28.2 °F 52% 29.87 in 10.0 mi NW 11.5 mph 20.7 mph N/A   Clear
12:55 PM 45.9 °F 40.0 °F 28.6 °F 51% 29.87 in 10.0 mi NW 12.7 mph 19.6 mph N/A   Clear
1:15 PM 46.6 °F - 28.0 °F 49% 29.86 in 10.0 mi NW 16.1 mph - N/A   Clear
1:35 PM 47.5 °F - 28.2 °F 47% 29.85 in 10.0 mi WNW 16.1 mph 19.6 mph N/A   Clear
1:55 PM 48.2 °F - 28.4 °F 46% 29.85 in 10.0 mi NW 15.0 mph 21.9 mph N/A   Clear
2:15 PM 48.7 °F - 28.0 °F 45% 29.84 in 10.0 mi NW 13.8 mph 21.9 mph N/A   Clear
2:35 PM 48.7 °F - 26.8 °F 43% 29.84 in 10.0 mi NW 15.0 mph 21.9 mph N/A   Clear
2:55 PM 49.1 °F - 23.9 °F 37% 29.84 in 10.0 mi NW 12.7 mph - N/A   Clear
3:15 PM 49.1 °F - 22.1 °F 35% 29.84 in 10.0 mi NW 15.0 mph 21.9 mph N/A   Clear
3:35 PM 49.6 °F - 18.3 °F 29% 29.84 in 10.0 mi NW 16.1 mph - N/A   Clear
3:55 PM 49.5 °F - 15.4 °F 26% 29.84 in 10.0 mi NW 11.5 mph 19.6 mph N/A   Clear
4:15 PM 49.1 °F - 12.2 °F 23% 29.84 in 10.0 mi NW 12.7 mph 18.4 mph N/A   Clear
4:35 PM 48.7 °F - 12.0 °F 23% 29.85 in 10.0 mi WNW 11.5 mph - N/A   Clear
4:55 PM 47.8 °F - 13.1 °F 25% 29.85 in 10.0 mi NW 11.5 mph - N/A   Clear
5:15 PM 46.8 °F - 13.1 °F 26% 29.85 in 10.0 mi NW 8.1 mph - N/A   Clear
5:35 PM 44.4 °F 41.2 °F 14.2 °F 30% 29.86 in 10.0 mi NW 5.8 mph - N/A   Clear
5:55 PM 42.6 °F 38.4 °F 14.5 °F 32% 29.86 in 10.0 mi NW 6.9 mph - N/A   Clear
6:15 PM 41.5 °F 38.6 °F 14.0 °F 33% 29.87 in 10.0 mi WNW 4.6 mph - N/A   Clear
6:35 PM 40.3 °F 37.1 °F 13.8 °F 34% 29.88 in 10.0 mi WNW 4.6 mph - N/A   Clear
6:55 PM 39.6 °F 36.3 °F 14.4 °F 36% 29.88 in 10.0 mi NW 4.6 mph - N/A   Clear
7:15 PM 37.9 °F 35.5 °F 14.0 °F 38% 29.89 in 10.0 mi West 3.5 mph - N/A   Clear
7:35 PM 37.9 °F - 13.8 °F 37% 29.89 in 10.0 mi Calm Calm - N/A   Clear
7:55 PM 38.7 °F - 12.4 °F 34% 29.89 in 10.0 mi Calm Calm - N/A   Clear
8:15 PM 38.3 °F - 13.6 °F 37% 29.88 in 10.0 mi Calm Calm - N/A   Clear
8:35 PM 36.3 °F 33.7 °F 15.8 °F 43% 29.88 in 10.0 mi WNW 3.5 mph - N/A   Clear
8:55 PM 34.0 °F - 16.5 °F 49% 29.88 in 10.0 mi Calm Calm - N/A   Clear
9:15 PM 34.7 °F - 16.5 °F 48% 29.87 in 10.0 mi Calm Calm - N/A   Clear
9:35 PM 34.7 °F - 17.4 °F 49% 29.87 in 10.0 mi Calm Calm - N/A   Clear
9:55 PM 35.6 °F - 16.7 °F 46% 29.88 in 10.0 mi Calm Calm - N/A   Clear
10:15 PM 34.5 °F 29.4 °F 16.7 °F 48% 29.88 in 10.0 mi WNW 5.8 mph - N/A   Clear
10:35 PM 33.6 °F 26.8 °F 19.6 °F 56% 29.88 in 10.0 mi WNW 8.1 mph - N/A   Clear
11:15 PM 32.4 °F 26.0 °F 19.4 °F 59% 29.88 in 10.0 mi WNW 6.9 mph - N/A   Clear
11:35 PM 33.6 °F 29.4 °F 18.5 °F 54% 29.88 in 10.0 mi WNW 4.6 mph - N/A   Clear
11:55 PM 32.2 °F 27.7 °F 18.0 °F 56% 29.88 in 10.0 mi WNW 4.6 mph - N/A   Clear